Location: Balagbag Mahabang Kahoy
(14.1562°N, 120.9200°E)
Time: 04:25:42
(UTC+00:00)

NOAA 12 - Pass Details

Date: 16 January 2026
Orbit: 793 x 813 km, 98.6° (Epoch: 15 February)

Event Time Altitude Azimuth Distance (km) Brightness Sun altitude
Rises 21:11:46 0° 0° (N) 3,284 7.1 -17.5°
Reaches altitude 10° 21:14:11 10° 354° (N) 2,356 6.3 -16.9°
Maximum altitude 21:19:03 41° 284° (WNW) 1,133 4.4 -15.8°
Drops below altitude 10° 21:23:56 10° 215° (SW) 2,364 6.4 -14.7°
Sets 21:26:22 0° 208° (SSW) 3,296 7.2 -14.1°
